Погода в Степачёво

Россия / Вологодская область     58°46′34″N   36°17′06″E
темп.,
°C
ветер,
м/с
пор.,
м/с
влажн.,
%
обл.,
%
осадки,
мм/ч
давл.,
гПа
погр.,
м
9 марта, вт
вт900:00−19ссз359967 0.0 101398
03:00−21ссз2310082 0.1 101646
06:00−23ссз23100100 0.0 101770
09:00−23с369691 0.0 1019241
12:00−19с358862 0.0 1020405
15:00−17с368776 0.0 1021520
18:00−19ссв2395100 0.0 102363
21:00−23ссв239865 0.0 102545
10 марта, ср
ср1000:00−25ссв2310031 0.0 102636
03:00−27ссв229921 0.0 102822
06:00−28с22980 0.0 102919
09:00−25с12940 0.0 1030102
12:00−18сз22800 0.0 1030283
15:00−13зсз24740 0.0 1030428
18:00−15з238826 0.0 102927
21:00−18сз239416 0.0 103027
11 марта, чт
чт1100:00−20сз22990 0.0 103120
03:00−21зсз1210029 0.0 103120
06:00−21з2210058 0.0 103120
09:00−18зюз129529 0.0 103288
12:00−11юз238448 0.0 1031349
15:00−9ююз348264 0.0 1029614
18:00−11ю359070 0.0 102790
21:00−14ююз4108935 0.0 1027204
12 марта, пт
пт1200:00−17ююз410880 0.0 1026212
03:00−18ююз410910 0.0 1025221
06:00−18ю410900 0.0 1024227
09:00−16ю512870 0.0 1022270
12:00−10ю610830 0.0 1021409
15:00−7ю612810 0.0 1018603
18:00−8ю615830 0.0 1016659
21:00−9ю716878 0.0 1015738
13 марта, сб
сб1300:00−8ю71490100 0.1 1014805
03:00−8ю71391100 0.4 1013753
06:00−9ю61390100 0.1 1012668
09:00−8ю6138899 0.2 1012672
12:00−5ю61087100 0.1 1011722
15:00−4ю5991100 0.3 1011671
18:00−4ю4994100 0.1 1010456
21:00−5ю499586 0.2 1010211